Regional Weather Roundup
Issued by NWS

Home | Current Version | Previous Version | Graphics & Text | Print | Product List | Glossary On
Versions: 1 2 3 4 5 6 7 8 9 10 11 12 13 14 15 16 17 18 19 20 21 22 23 24 25 26 27 28 29 30 31 32 33 34 35 36 37 38 39 40 41 42 43 44 45 46 47 48 49 50
371
ASUS44 KLIX 270811
RWRLA
LOUISIANA WEATHER ROUNDUP
NATIONAL WEATHER SERVICE NEW ORLEANS LA
300 AM CDT FRI MAR 27 2015

NOTE: "FAIR" INDICATES FEW OR NO CLOUDS BELOW 12,000 FEET WITH NO
      SIGNIFICANT WEATHER AND/OR OBSTRUCTIONS TO VISIBILITY.
      SKY/WX - SKY CONDITION AND SIGNIFICANT WEATHER.
      TMP - AIR TEMPERATURE.    DP   - DEWPOINT TEMPERATURE.
      RH  - RELATIVE HUMIDITY.  PRES - PRESSURE.
      HX  - HEAT INDEX.         WCI  - WIND CHILL INDEX.

*  THESE STATIONS ARE NOT NWS OR FAA STATIONS AND ARE NOT UNDER
   NWS QUALITY CONTROL.

LAZ040-048-061>063-065-066-069-270900-
SOUTHEAST LOUISIANA

CITY           SKY/WX    TMP DP  RH WIND       PRES   REMARKS
N.O. AUDUBON     N/A     57  55  94 MISG        N/A
N.O. INTL ARPT CLOUDY    56  48  74 N16       29.95S
N.O. LAKEFRONT CLOUDY    58  51  78 N20G29    29.95S
SLIDELL        CLOUDY    55  50  83 N8G20     29.93S
BATON ROUGE    CLOUDY    53  47  79 N8G17     30.00F
BOOTHVILLE     CLOUDY    60  58  92 NW16      29.90S
BELLE CHASSE   CLOUDY    57  50  77 N8G17     29.92F
BOGALUSA*        N/A     55  49  80 N14       29.97F
GALLIANO*      CLOUDY    59  56  89 MISG      29.93R
NEW ROADS*     CLOUDY    52  44  73 N16       30.03S
GONZALES*      CLOUDY    55  49  82 NW10G21   29.98F
HAMMOND*       CLOUDY    54  46  76 N9G18     29.98F
HOUMA*         CLOUDY    55  51  85 N14G20    29.95S
PORT FOURCHON* CLOUDY    61  57  88 N16G23    29.96R

$$

LAZ041-044-053-054-270900-
SOUTHWEST LOUISIANA

CITY           SKY/WX    TMP DP  RH WIND       PRES   REMARKS
LAKE CHARLES   CLEAR     52  46  80 N12       30.06R
LAFAYETTE      CLOUDY    54  47  77 N14       30.03R
PATTERSON      CLOUDY    55  46  71 N12G18    29.99S
SALT POINT       N/A     55  49  80 VRB7      29.98R
NEW IBERIA     CLOUDY    55  47  74 N17       30.02S
CHENAULT AIRPK CLEAR     50  46  84 N8        30.07R

$$

LAZ027-028-270900-
CENTRAL LOUISIANA

CITY           SKY/WX    TMP DP  RH WIND       PRES   REMARKS
FORT POLK      CLEAR     46  45  94 NW6       30.07S
ALEXANDRIA INT CLEAR     45  43  93 NW5       30.06S
ALEXANDRIA     CLEAR     47  44  90 CALM      30.07S

$$

LAZ001-002-270900-
NORTHWEST LOUISIANA

CITY           SKY/WX    TMP DP  RH WIND       PRES   REMARKS
SHREVEPORT     CLEAR     42  40  92 CALM      30.07F
BARKSDALE AFB  CLEAR     45  40  82 W5        30.07F
DTN SHREVEPORT CLEAR     43  37  79 CALM      30.08F

$$

LAZ014-016-270900-
NORTHEAST LOUISIANA

CITY           SKY/WX    TMP DP  RH WIND       PRES   REMARKS
MONROE         CLEAR     43  42  97 CALM      30.07F
TALLULAH       LGT RAIN  45  38  76 N9        30.05F

$$




USA.gov is the U.S. government's official web portal to all federal, state and local government web resources and services.